[[{"header":{"parameterUnit":"m.s-1","parameterCategory":1,"la1":30.2991,"la2":30.254,"lo1":-89.0895,"lo2":-89.0444,"dy":0.0017,"dx":0.0017,"nx":28,"ny":28,"refTime":"2025-11-05T03:00:00:Z","depth":0,"parameterNumber":2,"parameterNumberName":"U-component_of_WINDS"},"data":[0,0,0,0,0,0,0,0,0,0,0,0,0,0,0,0,0,0,0,0,0,0,0,0,0,0,0,0,0,0,0,0,0,0,0,0,0,0,0,0,0,0,0,0,0,0,0,0,0,0,0,0,0,0,0,0,0,0,-1.7049,-1.7049,0,-1.7069,-1.7069,-1.7069,-1.6997,-1.6995,-1.6992,-1.699,-1.7014,-1.7017,-1.702,0,0,0,0,0,0,0,0,0,0,0,0,0,-1.6953,-1.6955,-1.7049,-1.705,-1.705,-1.7069,-1.7069,-1.7069,-1.6997,-1.6994,-1.6992,-1.6989,-1.7013,-1.7017,-1.702,0,0,0,0,0,0,0,0,0,0,0,0,0,-1.6986,-1.6956,-1.7049,-1.7016,-1.7013,-1.7069,-1.7069,-1.7069,-1.6998,-1.6994,-1.6991,-1.6988,-1.7012,-1.7016,-1.702,-1.711,0,0,-1.7032,-1.7034,0,0,0,0,0,0,0,0,-1.6985,-1.699,-1.7021,-1.7018,-1.7015,-1.7027,-1.7044,-1.7083,-1.6998,-1.7004,-1.699,-1.6986,-1.7021,-1.7024,-1.7035,-1.7111,-1.7112,-1.7033,-1.7035,-1.7037,-1.7038,0,0,0,0,0,0,0,-1.6982,-1.6989,-1.7057,-1.7021,-1.7018,-1.7001,-1.7002,-1.7051,-1.7031,-1.7003,-1.6998,-1.7001,-1.7019,-1.7032,-1.7035,-1.7113,-1.7033,-1.7036,-1.7039,-1.704,-1.7265,-1.7268,0,0,0,0,0,0,-1.6984,-1.6987,-1.7056,-1.7058,-1.6991,-1.7006,-1.7007,-1.7027,-1.703,-1.7027,-1.7004,-1.6997,-1.7027,-1.7031,-1.7036,-1.7142,-1.7037,-1.7041,-1.7043,-1.7261,-1.7266,-1.727,0,0,0,0,0,0,-1.6982,-1.6991,-1.7056,-1.7021,-1.7028,-1.7011,-1.7034,-1.7029,-1.7041,-1.703,-1.7027,-1.702,-1.7024,-1.703,-1.7092,-1.7142,-1.7042,-1.7046,-1.7257,-1.7263,-1.7268,-1.7355,0,0,0,0,0,0,-1.698,-1.699,-1.7023,-1.7022,-1.703,-1.7111,-1.7036,-1.7031,-1.7047,-1.704,-1.7045,-1.7042,-1.7022,-1.7087,-1.7096,-1.7146,-1.7049,-1.7253,-1.726,-1.7266,-1.7348,-1.7363,-1.7376,0,0,0,0,0,-1.6976,-1.7048,-1.7025,-1.7034,-1.7071,-1.7114,-1.7118,-1.7092,-1.7052,-1.7085,-1.7079,-1.7042,-1.7135,-1.7094,-1.7104,-1.7155,-1.7249,-1.7258,-1.7265,-1.7342,-1.736,-1.7376,0,0,0,0,0,0,-1.7056,-1.7047,-1.7022,-1.7095,-1.7106,-1.7101,-1.7143,-1.7112,-1.7136,-1.7127,-1.7095,-1.7097,-1.7165,-1.7166,-1.712,-1.7243,-1.7186,-1.7196,-1.724,-1.7257,-1.7271,-1.727,-1.7053,0,0,0,0,0,-1.7082,-1.7116,-1.7107,-1.7172,-1.7179,-1.716,-1.7178,-1.7157,-1.7167,-1.7172,-1.7169,-1.7182,-1.7214,-1.7236,-1.7264,-1.7348,-1.7349,-1.7388,-1.7402,-1.7414,-1.7424,-1.7469,-1.7487,-1.7296,-1.7296,-1.7296,0,0,-1.7137,-1.7136,-1.7159,-1.7188,-1.7194,-1.7232,-1.7164,-1.7207,-1.7235,-1.7178,-1.7236,-1.7236,-1.7248,-1.7321,-1.7353,-1.7324,-1.7477,-1.7424,-1.7434,-1.7437,-1.7479,-1.7497,-1.7513,-1.7301,-1.73,-1.73,0,0,-1.7254,-1.7257,-1.7312,-1.7319,-1.7328,-1.7315,-1.7329,-1.7329,-1.7326,-1.7384,-1.7343,-1.7376,-1.7432,-1.7442,-1.7455,-1.7578,-1.7546,-1.7589,-1.7662,-1.7707,-1.7722,-1.7735,-1.778,-1.7797,-1.7598,-1.7599,-1.7599,0,-1.7321,-1.7374,-1.7344,-1.739,-1.7404,-1.7354,-1.7411,-1.7419,-1.7438,-1.745,-1.7417,-1.7486,-1.7491,-1.7566,-1.7597,-1.7608,-1.7624,-1.7588,-1.7722,-1.7735,-1.7747,-1.779,-1.7807,-1.7604,-1.7603,-1.7603,-1.7602,0,-1.7456,-1.7494,-1.7538,-1.7556,-1.7576,-1.7627,-1.7606,-1.763,-1.7608,-1.7599,-1.766,-1.7663,-1.7692,-1.7709,-1.7688,-1.7782,-1.7764,-1.7727,-1.7668,-1.7771,-1.781,-1.7826,-1.7611,-1.7609,-1.7608,-1.7607,0,0,-1.7625,-1.7626,-1.7643,-1.7651,-1.7658,-1.7687,-1.7737,-1.7764,-1.7786,-1.7801,-1.7843,-1.7891,-1.7857,-1.7872,-1.7852,-1.7891,-1.799,-1.785,-1.7849,-1.7876,-1.8096,-1.8124,-1.8143,-1.7969,-1.7972,-1.7974,-1.8095,0,-1.7741,-1.7824,-1.7799,-1.7883,-1.7918,-1.7872,-1.7915,-1.7925,-1.7919,-1.7949,-1.7943,-1.7978,-1.793,-1.7939,-1.7975,-1.797,-1.8034,-1.7961,-1.8009,-1.8011,-1.8007,-1.8164,-1.8193,-1.8307,-1.811,-1.8113,-1.8115,0,-1.7887,-1.7907,-1.7995,-1.7997,-1.8011,-1.805,-1.8074,-1.8103,-1.8114,-1.8107,-1.8124,-1.8096,-1.8146,-1.8087,-1.8157,-1.8108,-1.8126,-1.8127,-1.8131,-1.8135,-1.8069,-1.8173,-1.8343,-1.8361,-1.8139,-1.8137,-1.8135,0,-1.8002,-1.8051,-1.811,-1.8118,-1.8122,-1.8151,-1.8154,-1.8162,-1.818,-1.8202,-1.8214,-1.8241,-1.8257,-1.828,-1.8261,-1.822,-1.8335,-1.8274,-1.8331,-1.8332,-1.8358,-1.8357,-1.8534,-1.8369,-1.8369,-1.8368,-1.8368,0,-1.8135,-1.819,-1.8162,-1.8198,-1.826,-1.8231,-1.8293,-1.8291,-1.8299,-1.8335,-1.8297,-1.8332,-1.8305,-1.8339,-1.8325,-1.8386,-1.8393,-1.839,-1.8385,-1.8393,-1.8394,-1.8405,-1.8397,-1.8373,-1.8372,-1.8371,-1.837,0,-1.8273,-1.8256,-1.8317,-1.8316,-1.8317,-1.8363,-1.8362,-1.8396,-1.8387,-1.8434,-1.8443,-1.843,-1.8468,-1.8451,-1.8491,-1.8482,-1.856,-1.8545,-1.8556,-1.8553,-1.8612,-1.8607,-1.8803,-1.8828,-1.8646,-1.8648,-1.8649,0,-1.8359,-1.8401,-1.8404,-1.8425,-1.843,-1.8465,-1.8483,-1.8458,-1.8479,-1.8495,-1.8529,-1.8563,-1.8588,-1.8651,-1.8646,-1.8677,-1.8663,-1.873,-1.8667,-1.8675,-1.8665,-1.8663,-1.8668,-1.8742,-1.8745,-1.8746,-1.8748,0,-1.8514,-1.8504,-1.8531,-1.8557,-1.858,-1.8599,-1.8615,-1.8634,-1.8609,-1.8636,-1.8673,-1.8693,-1.8734,-1.8769,-1.8796,-1.8801,-1.8772,-1.8767,-1.8782,-1.8791,-1.8796,-1.8795,-1.8591,-1.8763,-1.8761,-1.876,-1.8759,-1.8759,-1.8629,-1.8665,-1.8672,-1.8705,-1.8714,-1.873,-1.8762,-1.8758,-1.8788,-1.8818,-1.8801,-1.8846,-1.8857,-1.8891,-1.89,-1.8936,-1.891,-1.8931,-1.8937,-1.8943,-1.8951,-1.879,-1.8941,-1.894,-1.894,-1.8939,-1.8939,0,-1.8783,-1.8785,-1.8816,-1.8839,-1.8865,-1.8833,-1.8849,-1.8874,-1.8913,-1.8925,-1.8952,-1.8996,-1.903,-1.9028,-1.906,-1.9089,-1.9076,-1.9098,-1.9096,-1.9098,-1.8972,-1.8956,-1.9108,-1.9108,-1.9108,-1.9108,-1.9108,-1.9108,-1.8865,-1.8924,-1.8915,-1.8978,-1.898,-1.9022,-1.9035,-1.905,-1.906,-1.911,-1.9138,-1.9136,-1.9144,-1.9176,-1.9207,-1.9205,-1.9219,-1.9247,-1.9241,-1.9123,-1.9107,-1.9091,-1.9076,-1.925,-1.925,-1.9364,-1.9365,-1.9366]},{"header":{"parameterUnit":"m.s-1","parameterCategory":1,"la1":30.2991,"la2":30.254,"lo1":-89.0895,"lo2":-89.0444,"dy":0.0017,"dx":0.0017,"nx":28,"ny":28,"refTime":"2025-11-05T03:00:00:Z","depth":0,"parameterNumber":3,"parameterNumberName":"V-component_of_WINDS"},"data":[0,0,0,0,0,0,0,0,0,0,0,0,0,0,0,0,0,0,0,0,0,0,0,0,0,0,0,0,0,0,0,0,0,0,0,0,0,0,0,0,0,0,0,0,0,0,0,0,0,0,0,0,0,0,0,0,0,0,1.1561,1.1562,0,1.1655,1.1656,1.1657,1.1747,1.1748,1.1749,1.175,1.1845,1.1846,1.1848,0,0,0,0,0,0,0,0,0,0,0,0,0,1.1457,1.1458,1.1561,1.1562,1.1563,1.1655,1.1656,1.1657,1.1746,1.1748,1.1749,1.1751,1.1844,1.1846,1.1848,0,0,0,0,0,0,0,0,0,0,0,0,0,1.1521,1.1459,1.156,1.1619,1.1625,1.1654,1.1656,1.1657,1.1746,1.1748,1.175,1.1751,1.1844,1.1846,1.1848,1.1827,0,0,1.1855,1.1856,0,0,0,0,0,0,0,0,1.1518,1.1525,1.1609,1.1615,1.1622,1.1691,1.1654,1.1714,1.1746,1.17,1.175,1.1752,1.1792,1.1799,1.1813,1.1832,1.1836,1.1855,1.1856,1.1857,1.1858,0,0,0,0,0,0,0,1.1513,1.1522,1.1598,1.161,1.1618,1.164,1.1651,1.1666,1.1735,1.1704,1.1711,1.1721,1.1796,1.181,1.1815,1.1837,1.1855,1.1857,1.1858,1.1859,1.1843,1.1841,0,0,0,0,0,0,1.15,1.1517,1.1595,1.1601,1.1573,1.164,1.1652,1.1667,1.1735,1.1747,1.1719,1.1725,1.1806,1.1813,1.1819,1.1798,1.1857,1.1859,1.1861,1.1845,1.1843,1.1841,0,0,0,0,0,0,1.1497,1.1506,1.1591,1.1561,1.1573,1.164,1.1655,1.1668,1.1682,1.1747,1.1759,1.1721,1.1807,1.1816,1.1824,1.1803,1.186,1.1862,1.1847,1.1844,1.1842,1.1756,0,0,0,0,0,0,1.1494,1.1505,1.1498,1.156,1.1575,1.1595,1.1654,1.1668,1.1686,1.1694,1.1752,1.1763,1.1809,1.1821,1.1827,1.1807,1.1864,1.1849,1.1846,1.1842,1.1761,1.1751,1.1742,0,0,0,0,0,1.149,1.147,1.1497,1.1506,1.1567,1.1594,1.1602,1.1656,1.1684,1.1677,1.1718,1.1761,1.1804,1.1821,1.1828,1.1809,1.1851,1.1847,1.1843,1.1765,1.1753,1.1742,0,0,0,0,0,0,1.1403,1.1479,1.151,1.1509,1.1544,1.1609,1.1602,1.1641,1.1668,1.1674,1.174,1.1752,1.1753,1.1782,1.1799,1.1792,1.1833,1.1831,1.1772,1.1761,1.1751,1.1743,1.1866,0,0,0,0,0,1.1384,1.1399,1.1465,1.1458,1.1474,1.1534,1.1548,1.1586,1.1625,1.164,1.1682,1.1718,1.1739,1.1752,1.1776,1.1767,1.178,1.1757,1.1747,1.1739,1.1735,1.1731,1.1721,1.1828,1.1828,1.1828,0,0,1.1344,1.1387,1.1393,1.1441,1.1473,1.1486,1.1546,1.1559,1.1569,1.1642,1.1652,1.1684,1.1728,1.1727,1.1729,1.1752,1.1709,1.1734,1.1727,1.1728,1.1726,1.1716,1.1707,1.1825,1.1826,1.1826,0,0,1.1278,1.1313,1.1311,1.1341,1.1388,1.1429,1.1428,1.1487,1.1511,1.1522,1.1577,1.159,1.1626,1.1655,1.1674,1.1618,1.1658,1.1624,1.1574,1.1569,1.1561,1.1554,1.1532,1.1524,1.1621,1.1621,1.1621,0,1.1222,1.1245,1.1304,1.1313,1.1332,1.1399,1.1396,1.1423,1.1475,1.1486,1.1511,1.1557,1.1592,1.1598,1.1584,1.1598,1.1598,1.1617,1.1557,1.1551,1.1545,1.1525,1.1517,1.1616,1.1617,1.1617,1.1618,0,1.1174,1.1189,1.1181,1.123,1.1248,1.1251,1.131,1.1321,1.1358,1.1396,1.1406,1.145,1.1482,1.1487,1.1523,1.1498,1.151,1.1545,1.1588,1.1529,1.1512,1.1505,1.161,1.1611,1.1613,1.1614,0,0,1.1055,1.1136,1.1132,1.1154,1.1211,1.1223,1.1229,1.1262,1.1269,1.1303,1.1309,1.1338,1.137,1.1392,1.1432,1.1428,1.1379,1.1464,1.1466,1.1445,1.1352,1.1324,1.1314,1.1407,1.1406,1.1405,1.1348,0,1.0997,1.1011,1.1064,1.1062,1.1076,1.114,1.1145,1.118,1.1215,1.1231,1.1271,1.1289,1.1332,1.1345,1.1344,1.1385,1.1361,1.139,1.1411,1.1411,1.1396,1.1305,1.1276,1.122,1.1342,1.134,1.134,0,1.0931,1.0961,1.0959,1.1015,1.1023,1.1026,1.106,1.1075,1.1116,1.1142,1.1166,1.1211,1.1219,1.1261,1.1273,1.1291,1.1303,1.1324,1.1324,1.1326,1.137,1.1304,1.1204,1.1194,1.133,1.1331,1.1331,0,1.0842,1.0881,1.0886,1.0903,1.0969,1.0969,1.0996,1.1039,1.1055,1.1084,1.1095,1.1125,1.114,1.1162,1.1213,1.1239,1.1219,1.1265,1.124,1.1238,1.1231,1.123,1.113,1.1241,1.1242,1.1242,1.1242,0,1.0771,1.0767,1.0846,1.0848,1.0846,1.0907,1.0903,1.0937,1.0974,1.0983,1.1041,1.1049,1.1117,1.1132,1.1172,1.1175,1.1183,1.1203,1.1213,1.1197,1.1194,1.1204,1.1208,1.124,1.124,1.1241,1.1241,0,1.067,1.0723,1.0731,1.0793,1.0808,1.0803,1.0856,1.086,1.0899,1.091,1.0916,1.0977,1.0998,1.1052,1.1087,1.1114,1.1105,1.1126,1.1091,1.1097,1.1068,1.1069,1.0969,1.0958,1.1078,1.1077,1.1076,0,1.062,1.0619,1.068,1.069,1.0715,1.0731,1.0748,1.0808,1.0823,1.0869,1.0867,1.0892,1.0916,1.0946,1.0993,1.102,1.104,1.1003,1.1044,1.1027,1.1037,1.1036,1.1035,1.0993,1.0992,1.099,1.0989,0,1.0525,1.0551,1.0573,1.0603,1.0621,1.0648,1.0678,1.0683,1.075,1.0764,1.0786,1.0804,1.0839,1.0863,1.0897,1.0925,1.0967,1.0976,1.0972,1.0953,1.0933,1.0942,1.1064,1.0978,1.0979,1.098,1.098,1.0981,1.0447,1.0449,1.0491,1.0513,1.0542,1.0568,1.0575,1.0615,1.0635,1.0668,1.0703,1.072,1.0761,1.0811,1.0836,1.085,1.0873,1.0866,1.0864,1.0861,1.0853,1.0932,1.0857,1.0857,1.0858,1.0858,1.0858,0,1.0354,1.0385,1.0404,1.0444,1.0461,1.05,1.0536,1.0547,1.0562,1.0596,1.0618,1.0642,1.0666,1.0715,1.0743,1.0745,1.0765,1.075,1.0749,1.0755,1.0832,1.0832,1.0733,1.0733,1.0733,1.0733,1.0733,1.0733,1.0307,1.0311,1.0342,1.036,1.0391,1.0409,1.0426,1.045,1.0478,1.0502,1.0522,1.0554,1.0594,1.0626,1.0649,1.0662,1.0669,1.0647,1.0667,1.0738,1.0749,1.0761,1.0761,1.0649,1.0648,1.0588,1.0588,1.0587]}]]